Home > Weather > Abeokuta > Past weeks

Flag for Nigeria Weather for the Past 2 Weeks in Abeokuta, Nigeria

Now
73 °F

Haze.


Feels Like: 70 °F
Forecast: 68 / 101 °F
Wind: 2 mph from North

Location: Lagos / Ikeja

Current Time: Feb 11, 2016 at 6:51:44 AM

Latest Report: Feb 11, 2016 at 6:00 AM


Visibility: 1 mi

Pressure: 29.92 "Hg

Humidity: 94%

Dew point: 72 °F

Location of AbeokutaLocation

Historic Weather in Abeokuta — Graph

°F

Abeokuta Temperature Yesterday

Maximum temperature yesterday: 99 °F (at 2:00 PM)
Minimum temperature yesterday: 77 °F (at 7:00 AM)
Average temperature yesterday: 85 °F

High & Low Weather Summary for the Past Weeks

 TemperatureHumidityPressure
High99 °F (Feb 10, 2:00 PM)100% (Feb 2, 3:00 AM)30.07 "Hg (Feb 2, 3:00 AM)
Low70 °F (Jan 27, 6:00 AM)17% (Feb 10, 1:00 PM)29.80 "Hg (Feb 2, 4:00 PM)
Average82 °F68%29.93 "Hg
* Reported Jan 27 5:00 AM — Feb 11 5:00 AM, Abeokuta, Weather by CustomWeather, © 2016

Note: Actual official high and low records may vary slightly from our data, if they occured in-between our weather recording intervals... More about our weather records

Advertising

Abeokuta Weather History for the Previous 24 Hours

 ConditionsComfort  
Time TempWeatherWind HumidityBarometerVisibility
5:00 AM
Thu, Feb 11
73 °FHaze.2 mph89%29.92 "Hg1 mi
4:00 AM75 °FHaze.2 mph94%29.92 "Hg1 mi
3:00 AM75 °FHaze.2 mph94%29.92 "Hg1 mi
2:00 AM79 °FHaze.No wind89%29.92 "Hg1 mi
1:00 AM79 °FHaze.No wind89%29.92 "Hg1 mi
12:00 AM79 °FHaze.2 mph89%29.92 "Hg1 mi
11:00 PM
Wed, Feb 10
79 °FHaze.2 mph89%29.89 "Hg1 mi
10:00 PM79 °FHaze.3 mph84%29.89 "Hg1 mi
9:00 PM81 °FHaze.3 mph70%29.86 "Hg1 mi
8:00 PM82 °FHaze.5 mph62%29.83 "Hg1 mi
7:00 PM84 °FHaze.5 mph51%29.83 "Hg1 mi
6:00 PM90 °FHaze.6 mph41%29.80 "Hg2 mi
5:00 PM93 °FHaze.8 mph32%29.80 "Hg2 mi
4:00 PM97 °FHaze.8 mph19%29.80 "Hg2 mi
3:00 PM99 °FHaze.9 mph19%29.83 "Hg2 mi
2:00 PM99 °FHaze.7 mph19%29.86 "Hg2 mi
1:00 PM97 °FHaze.9 mph17%29.89 "Hg2 mi
12:00 PM93 °FHaze.6 mph23%29.95 "Hg2 mi
11:00 AM88 °FHaze.8 mph31%29.95 "Hg2 mi
10:00 AM84 °FHaze.10 mph43%29.98 "Hg2 mi
9:00 AM79 °FHaze.9 mph74%29.98 "Hg2 mi
8:00 AM77 °FHaze.3 mph94%29.95 "Hg1 mi
7:00 AM77 °FHaze.3 mph94%29.95 "Hg1 mi
6:00 AM79 °FHaze.5 mph89%29.95 "Hg2 mi
Weather by CustomWeather, © 2016

See weather overviewHow to use our weather pages